User: anonymous   Login
Location: Cape Cod Imaging Station
(41.7417°N, 70.1583°W)
Time: 21:20:25
(UTC-05:00)
Language:

Cosmos 1508 Rocket - Orbit

View from above orbital plane
View from above orbital plane
View from above satellite
View from above satellite

Ground track
Ground track

The orbit data is extracted from the following two-line orbital elements,

1 14484U 83111B   15024.52246020  .00064458  00000-0  60729-3 0  7800
2 14484 082.8326 112.1907 0150714 190.6782 269.1258 15.53636324606636
Epoch (UTC): 24 January 2015 12:32:20
Eccentricity: 0.0150714
inclination: 82.8326°
perigee height: 304 km
apogee height: 508 km
right ascension of ascending node: 112.1907°
argument of perigee: 190.6782°
revolutions per day: 15.53636324
mean anomaly at epoch: 269.1258°
orbit number at epoch: 60663

The dashed part of the orbit path shows where the satellite is in the earth's shadow,  

DLR